Tiempo cada hora Alichur

Hoy, 28 Julio, Miércoles

Tiempo Temperatura Precipitaciones Viento Presión Humedad
00:00 +14°C° 0.1 mm 2 mps 464 mmHg 60%
01:00 +13°C° 0.1 mm 2 mps 464 mmHg 62%
02:00 +13°C° 0.1 mm 2 mps 463 mmHg 64%
03:00 +12°C° 0.1 mm 2 mps 463 mmHg 67%
04:00 +12°C° 0.1 mm 2 mps 463 mmHg 69%
05:00 +10°C° 0.1 mm 2 mps 462 mmHg 72%
06:00 +12°C° 0.1 mm 2 mps 463 mmHg 68%
07:00 +13°C° 0.1 mm 1 mps 463 mmHg 64%
08:00 +13°C° 0.1 mm 1 mps 464 mmHg 60%
09:00 +14°C° 0.1 mm 1 mps 464 mmHg 55%
10:00 +15°C° 0.1 mm 1 mps 464 mmHg 50%
11:00 +16°C° 0.1 mm 1 mps 465 mmHg 44%
12:00 +18°C° 0.1 mm 1 mps 465 mmHg 41%
13:00 +19°C° 0.1 mm 1 mps 465 mmHg 39%
14:00 +18°C° 0.1 mm 2 mps 465 mmHg 36%
15:00 +18°C° 0.1 mm 2 mps 465 mmHg 37%
16:00 +18°C° 0.1 mm 2 mps 464 mmHg 39%
17:00 +18°C° 0.1 mm 3 mps 464 mmHg 40%
18:00 +16°C° 1.1 mm 3 mps 464 mmHg 49%
19:00 +13°C° 1.1 mm 3 mps 463 mmHg 58%
20:00 +11°C° 1.1 mm 3 mps 463 mmHg 68%
21:00 +11°C° 0.2 mm 3 mps 463 mmHg 68%
22:00 +10°C° 0.2 mm 2 mps 463 mmHg 68%
23:00 +10°C° 0.2 mm 2 mps 463 mmHg 69%

Mañana, 29 Julio, Jueves

Tiempo Temperatura Precipitaciones Viento Presión Humedad
00:00 +10°C° 0.1 mm 2 mps 463 mmHg 70%
01:00 +10°C° 0.1 mm 2 mps 463 mmHg 72%
02:00 +10°C° 0.1 mm 2 mps 462 mmHg 73%
03:00 +11°C° 0.1 mm 1 mps 462 mmHg 74%
04:00 +10°C° 0.1 mm 1 mps 462 mmHg 74%
05:00 +10°C° 0.1 mm 1 mps 462 mmHg 74%
06:00 +11°C° 0.1 mm 1 mps 462 mmHg 68%
07:00 +12°C° 0.1 mm 1 mps 463 mmHg 62%
08:00 +13°C° 0.1 mm 1 mps 463 mmHg 57%
09:00 +14°C° 0 mm 1 mps 463 mmHg 52%
10:00 +15°C° 0 mm 1 mps 464 mmHg 46%
11:00 +16°C° 0 mm 1 mps 464 mmHg 41%
12:00 +18°C° 0 mm 1 mps 464 mmHg 39%
13:00 +18°C° 0 mm 1 mps 464 mmHg 36%
14:00 +19°C° 0 mm 1 mps 464 mmHg 33%
15:00 +18°C° 0 mm 2 mps 464 mmHg 32%
16:00 +18°C° 0 mm 3 mps 464 mmHg 31%
17:00 +18°C° 0 mm 4 mps 464 mmHg 30%
18:00 +17°C° 0 mm 5 mps 464 mmHg 31%
19:00 +16°C° 0 mm 5 mps 464 mmHg 31%
20:00 +15°C° 0 mm 5 mps 464 mmHg 32%
21:00 +14°C° 0 mm 4 mps 464 mmHg 34%
22:00 +14°C° 0 mm 3 mps 463 mmHg 36%
23:00 +14°C° 0 mm 2 mps 463 mmHg 39%

Pasado mañana, 30 Julio, Viernes

Tiempo Temperatura Precipitaciones Viento Presión Humedad
00:00 +13°C° 0 mm 2 mps 463 mmHg 41%
01:00 +12°C° 0 mm 2 mps 462 mmHg 43%
02:00 +12°C° 0 mm 2 mps 462 mmHg 46%
03:00 +10°C° 0 mm 2 mps 462 mmHg 49%
04:00 +10°C° 0 mm 2 mps 462 mmHg 53%
05:00 +9°C° 0 mm 2 mps 462 mmHg 56%
06:00 +10°C° 0 mm 2 mps 462 mmHg 53%
07:00 +10°C° 0 mm 2 mps 463 mmHg 50%
08:00 +12°C° 0 mm 2 mps 463 mmHg 47%
09:00 +13°C° 0 mm 2 mps 464 mmHg 42%
10:00 +14°C° 0 mm 2 mps 464 mmHg 37%
11:00 +14°C° 0 mm 3 mps 465 mmHg 32%
12:00 +15°C° 0 mm 4 mps 465 mmHg 28%
13:00 +16°C° 0 mm 6 mps 466 mmHg 24%
14:00 +17°C° 0 mm 7 mps 466 mmHg 20%
15:00 +17°C° 0 mm 8 mps 466 mmHg 19%
16:00 +17°C° 0 mm 8 mps 465 mmHg 18%
17:00 +17°C° 0 mm 9 mps 465 mmHg 17%
18:00 +16°C° 0 mm 7 mps 465 mmHg 18%
19:00 +15°C° 0 mm 6 mps 465 mmHg 20%
20:00 +14°C° 0 mm 4 mps 465 mmHg 22%
21:00 +13°C° 0 mm 3 mps 464 mmHg 24%
22:00 +13°C° 0 mm 3 mps 464 mmHg 26%
23:00 +13°C° 0 mm 2 mps 464 mmHg 29%

31 Julio, Sábado

Tiempo Temperatura Precipitaciones Viento Presión Humedad
00:00 +13°C° 0 mm 2 mps 463 mmHg 31%
01:00 +12°C° 0 mm 2 mps 463 mmHg 33%
02:00 +10°C° 0 mm 2 mps 463 mmHg 35%
03:00 +10°C° 0 mm 2 mps 463 mmHg 38%
04:00 +10°C° 0 mm 1 mps 462 mmHg 41%
05:00 +10°C° 0 mm 1 mps 462 mmHg 44%
06:00 +10°C° 0 mm 1 mps 463 mmHg 41%
07:00 +11°C° 0 mm 1 mps 464 mmHg 38%
08:00 +12°C° 0 mm 1 mps 464 mmHg 35%
09:00 +13°C° 0 mm 2 mps 465 mmHg 30%
10:00 +14°C° 0 mm 2 mps 465 mmHg 25%
11:00 +15°C° 0 mm 2 mps 466 mmHg 20%
12:00 +16°C° 0 mm 3 mps 466 mmHg 18%
13:00 +17°C° 0 mm 3 mps 466 mmHg 17%
14:00 +18°C° 0 mm 4 mps 466 mmHg 15%
15:00 +18°C° 0 mm 4 mps 466 mmHg 15%
16:00 +17°C° 0 mm 5 mps 466 mmHg 14%
17:00 +17°C° 0 mm 6 mps 466 mmHg 14%
18:00 +16°C° 0 mm 5 mps 466 mmHg 16%
19:00 +15°C° 0 mm 4 mps 465 mmHg 18%
20:00 +14°C° 0 mm 3 mps 465 mmHg 20%
21:00 +15°C° 0 mm 2 mps 465 mmHg 23%
22:00 +14°C° 0 mm 2 mps 464 mmHg 26%
23:00 +14°C° 0 mm 2 mps 464 mmHg 30%

1 Agosto, Domingo

Tiempo Temperatura Precipitaciones Viento Presión Humedad
00:00 +13°C° 0 mm 1 mps 464 mmHg 34%
01:00 +12°C° 0 mm 1 mps 463 mmHg 39%
02:00 +11°C° 0 mm 1 mps 463 mmHg 44%
03:00 +11°C° 0 mm 1 mps 463 mmHg 49%
04:00 +10°C° 0 mm 1 mps 463 mmHg 54%
05:00 +10°C° 0 mm 1 mps 462 mmHg 60%
06:00 +10°C° 0 mm 1 mps 463 mmHg 57%
07:00 +11°C° 0 mm 1 mps 463 mmHg 54%
08:00 +11°C° 0 mm 1 mps 464 mmHg 51%
09:00 +13°C° 0 mm 1 mps 464 mmHg 45%
10:00 +14°C° 0 mm 1 mps 464 mmHg 39%
11:00 +15°C° 0 mm 1 mps 465 mmHg 32%
12:00 +16°C° 0 mm 2 mps 465 mmHg 28%
13:00 +17°C° 0 mm 2 mps 465 mmHg 24%
14:00 +18°C° 0 mm 3 mps 465 mmHg 20%
15:00 +18°C° 0 mm 3 mps 465 mmHg 18%
16:00 +18°C° 0 mm 4 mps 465 mmHg 17%
17:00 +17°C° 0 mm 5 mps 465 mmHg 15%
18:00 +17°C° 0 mm 5 mps 465 mmHg 18%
19:00 +17°C° 0 mm 4 mps 465 mmHg 21%
20:00 +16°C° 0 mm 3 mps 464 mmHg 24%
21:00 +14°C° 0 mm 3 mps 464 mmHg 31%
22:00 +14°C° 0 mm 2 mps 464 mmHg 38%
23:00 +13°C° 0 mm 2 mps 463 mmHg 45%

2 Agosto, Lunes

Tiempo Temperatura Precipitaciones Viento Presión Humedad
00:00 +12°C° 0.1 mm 2 mps 463 mmHg 48%
01:00 +12°C° 0.1 mm 1 mps 463 mmHg 51%
02:00 +11°C° 0.1 mm 1 mps 462 mmHg 54%
03:00 +11°C° 0 mm 1 mps 462 mmHg 55%
04:00 +10°C° 0 mm 1 mps 462 mmHg 57%
05:00 +10°C° 0 mm 1 mps 462 mmHg 58%
06:00 +10°C° 0 mm 1 mps 462 mmHg 52%
07:00 +11°C° 0 mm 1 mps 463 mmHg 46%
08:00 +12°C° 0 mm 1 mps 464 mmHg 40%
09:00 +13°C° 0 mm 2 mps 464 mmHg 33%
10:00 +14°C° 0 mm 2 mps 465 mmHg 27%
11:00 +14°C° 0 mm 3 mps 465 mmHg 21%
12:00 +15°C° 0 mm 4 mps 465 mmHg 19%
13:00 +16°C° 0 mm 6 mps 466 mmHg 18%
14:00 +17°C° 0 mm 7 mps 466 mmHg 16%
15:00 +17°C° 0 mm 8 mps 466 mmHg 16%
16:00 +17°C° 0 mm 9 mps 465 mmHg 16%
17:00 +16°C° 0 mm 9 mps 465 mmHg 16%
18:00 +16°C° 0 mm 8 mps 465 mmHg 18%
19:00 +15°C° 0 mm 6 mps 465 mmHg 21%
20:00 +14°C° 0 mm 4 mps 464 mmHg 23%
21:00 +13°C° 0 mm 3 mps 464 mmHg 25%
22:00 +13°C° 0 mm 3 mps 464 mmHg 28%
23:00 +13°C° 0 mm 2 mps 464 mmHg 31%
Mostrar más

Necesitamos Su Consentimiento

Meteoprog y nuestros Proveedores de Servicios pueden almacenar y acceder a sus datos personales como cookies, identificadores de dispositivo u otras tecnologías similares de su dispositivo y procesar dichos datos para personalizar contenido y anuncios, además de ofrecer funciones de redes sociales y analizar el tráfico.

  • Almacenar y/o acceder a información en su dispositivo

    Se puede almacenar o acceder a cookies, identificadores de dispositivo u otra información de su dispositivo para los fines anteriormente indicados.

  • Anuncios y contenido personalizados, medición de anuncios y contenido, percepciones del público, y desarrollo de productos

    Los anuncios y el contenido pueden personalizarse en base a su perfil. Se pueden añadir más datos para personalizar mejor los anuncios y contenidos. Se puede medir el rendimiento de los anuncios y contenidos. Se puede obtener la percepción sobre el público que ha visto los anuncios y contenidos. Dichos datos pueden usarse para desarrollar o mejorar la experiencia del usuario, sistemas y software.

Al hacer clic en ‘Estoy De Acuerdo’ usted permitirá el uso de las cookies, identificadores de dispositivo, balizas web u otras tecnologías similares indicadas. Su configuración puede cambiarse desde el navegador de su dispositivo.

Para ciertos fines, los intereses legítimos pueden ser considerados por encima del consentimiento. Puede leer más sobre ello en nuestra Política de Privacidad y Cookies.